Flag for Germany Weather past 2 weeks in Pulheim, North Rhine-Westphalia, Germany

Now
61 °F

Passing clouds.


Feels Like: 61 °F
Forecast: 58 / 68 °F
Wind: 2 mph from South

Location: Noervenich

Current Time: Aug 29, 2014 at 4:22:03 AM

Latest Report: Aug 29, 2014 at 3:20 AM


Visibility: N/A

Pressure: 29.98 "Hg

Humidity: 94%

Dew point: 59 °F

Location of PulheimLocation

Historic Weather in Pulheim — Graph

°F

Pulheim temperature yesterday

Maximum temperature yesterday: 72 °F (at 12:20 PM)
Minimum temperature yesterday: 55 °F (at 3:20 AM)
Average temperature yesterday: 64 °F

Past Weeks' High & Low Weather Summary

 TemperatureHumidityPressure
High72 °F (Aug 28, 12:20 PM)100% (Aug 20, 9:20 PM)30.12 "Hg (Aug 20, 9:20 PM)
Low45 °F (Aug 20, 6:20 AM)40% (Aug 21, 3:20 PM)29.62 "Hg (Aug 26, 4:20 AM)
Average58 °F79%29.92 "Hg
* Reported Aug 14 2:20 AM — Aug 29 2:20 AM, Pulheim, Weather by CustomWeather, © 2014

Note: Actual official high and low records may vary slightly from our data, if they occured in-between our weather recording intervals... More about our weather records

Advertising

Pulheim weather history for previous 24 hours

 ConditionsComfort  
Time TempWeatherWind HumidityBarometerVisibility
2:20 AM
Aug 29
63 °FPartly cloudy.3 mph88%29.98 "HgN/A
1:20 AM63 °FSprinkles. Partly cloudy.3 mph94%29.98 "HgN/A
12:20 AM64 °FSprinkles. Partly cloudy.9 mph88%29.98 "HgN/A
11:20 PM
Aug 28
64 °FPartly cloudy.5 mph88%29.98 "HgN/A
10:20 PM64 °FPartly cloudy.2 mph83%29.95 "HgN/A
9:20 PM66 °FBroken clouds.3 mph83%29.95 "HgN/A
8:20 PM68 °FPartly sunny.2 mph78%29.95 "HgN/A
7:20 PM70 °FScattered clouds.3 mph73%29.95 "HgN/A
6:20 PM70 °FPartly sunny.5 mph73%29.95 "HgN/A
5:20 PM70 °FPartly sunny.6 mph69%29.98 "HgN/A
4:20 PM70 °FPartly sunny.5 mph69%29.98 "HgN/A
3:20 PM70 °FPartly sunny.8 mph69%29.98 "HgN/A
2:20 PM72 °FPartly sunny.6 mph61%29.98 "HgN/A
1:20 PM72 °FScattered clouds.6 mph61%29.98 "HgN/A
12:20 PM72 °FScattered clouds.7 mph61%29.98 "HgN/A
11:20 AM68 °FScattered clouds.5 mph73%30.01 "HgN/A
10:46 AM66 °FScattered clouds.3 mph78%30.01 "HgN/A
10:20 AM66 °FScattered clouds.3 mph78%30.01 "HgN/A
9:20 AM61 °FScattered clouds.3 mph88%30.01 "HgN/A
8:20 AM57 °FScattered clouds.1 mph94%30.01 "HgN/A
7:20 AM55 °FPassing clouds.1 mph94%30.01 "HgN/A
6:20 AM55 °FPassing clouds.1 mph94%30.01 "HgN/A
5:20 AM55 °FPassing clouds.1 mph94%30.01 "HgN/A
4:20 AM57 °FPassing clouds.1 mph88%30.01 "HgN/A
Weather by CustomWeather, © 2014

See weather overviewHow to use our weather pages